Location: Rooftop Observatory
(39.0308°N, 87.1711°W)
Time: 22:42:36
(UTC-05:00)

Terra - Visible Passes

Search period start: 22 July 2014 00:00
Search period end: 01 August 2014 00:00
Orbit: 701 x 703 km, 98.2° (Epoch: 22 July)

Date Brightness Start Highest point End Pass type
(mag) Time Alt. Az. Time Alt. Az. Time Alt. Az.
22 Jul 1.6 22:51:06 76° SSE 22:51:29 88° ENE 22:56:16 10° NNW visible
23 Jul 3.1 21:55:30 22° E 21:56:45 25° ENE 22:00:34 10° NNE visible
23 Jul 3.0 23:34:23 32° W 23:34:23 32° W 23:38:35 10° NNW visible
24 Jul 1.8 22:38:47 62° ESE 22:39:14 66° ENE 22:43:57 10° N visible
25 Jul 4.3 00:17:41 12° W 00:17:41 12° W 00:19:03 10° WNW visible
25 Jul 3.5 21:43:12 17° E 21:44:36 19° ENE 21:47:54 10° NNE visible
25 Jul 2.6 23:22:05 44° W 23:22:05 44° W 23:26:31 10° NNW visible
26 Jul 2.1 22:26:29 47° E 22:27:00 49° ENE 22:31:35 10° N visible
27 Jul 4.1 00:05:22 16° W 00:05:22 16° W 00:07:53 10° NW visible
27 Jul 3.7 21:30:54 13° E 21:32:28 15° ENE 21:35:01 10° NNE visible
27 Jul 2.1 23:09:47 59° W 23:09:47 59° W 23:14:23 10° NNW visible
28 Jul 2.5 22:14:12 35° E 22:14:48 37° ENE 22:19:09 10° N visible
28 Jul 3.7 23:53:05 21° W 23:53:05 21° W 23:56:13 10° NW visible
29 Jul 4.0 21:19:08 10° ENE 21:20:21 11° ENE 21:21:35 10° NE visible
29 Jul 1.8 22:57:29 80° W 22:57:29 80° W 23:02:10 10° NNW visible
30 Jul 2.9 22:01:54 27° E 22:02:36 28° ENE 22:06:38 10° N visible
30 Jul 3.4 23:40:48 28° W 23:40:48 28° W 23:44:21 10° NW visible
31 Jul 1.7 22:45:12 76° ENE 22:45:12 76° ENE 22:49:53 10° N visible
